Карточка аэропорта URMG

Внимание!
Информация на этой странице в стадии наполнения.
Если вы не увидели какой-то информации, или заметили неточность - пожалуйста сообщите нам!
Спасибо!
Команда RU-STAFF
Название аэропорта Грозный
Название аэропорта (англ.)Grozniy
Превышение545 ft. (166.1 m.)
Координаты43°23.292', 45°41.988'
Высота перехода1900 m
Эшелон переходаFL80
Коды ответчика2410-2417
Зона ОрВДРостов-на-Дону РПИ (URRV)
Данные METARURMG 250200Z 00000MPS 9999 -SHRA SCT///CB 20/18 Q1005 R26/290250 TEMPO 0300 FG BKN002 BKN020CB RMK QFE739/0986
Проноз погоды (TAF)URMG 242300Z 2500/2509 28003G08MPS 9999 BKN030 TEMPO 2500/2505 6000 -SHRA BKN016 BKN020CB BECMG 2505/2506 07003G08MPS
NOTAMshow/hide NOTAM
AWOS   TABLE

Информация о ВПП

ВПП Длина ВПП (м.) Покрытие Курс ВПП Частота ILS
082505Асфальтобетон80 
262505Асфальтобетон260108.7

Диспетчерские позиции

Позывной Наименование органа УВД Частота
URMG_R_APPГрозный-Вышка120.200
URMG_TWRГрозный-Старт119.0



Спутниковое изображение